SCP
0 0 0 0 0 0 0 1 1 0 0 0 0 0 0 1 0 0 0 -0 -0 -0 -0 0 0 -0 -0 -0 -0 -0 -0 0 0 0 0 0 0 0
0 0 0 0 0 1 1 1 0 0 0 0 0 0 0 1 0 0 0 0 0 0 -0 -0 0 0 -0 -0 -0 -0 -0 0 0 0 0 0 0 0
0 0 0 0 0 0 1 0 0 0 0 0 0 0 1 1 0 0 0 0 0 -0 -0 -0 -0 0 0 -0 -0 -0 -0 0 0 0 0 0 0 0
0 0 0 0 0 0 0 0 0 0 0 0 0 0 0 1 1 0 0 0 0 0 0 0 0 -0 -0 -0 -0 0 0 0 0 0 0 0 0 0
0 0 0 0 0 -0 -0 -0 0 0 0 0 -0 0 0 1 1 0 0 0 0 -0 -0 -0 0 0 -0 -0 -0 0 0 0 0 0 -0 0 0 0
0 -0 0 0 -0 -0 -0 -0 -0 0 0 0 0 0 0 0 1 1 0 0 0 0 -0 -0 -0 0 0 -0 -0 -0 -0 0 0 0 0 0 0 0
-0 -0 -0 -0 -0 -0 -0 -0 -0 -0 -0 -0 0 0 0 0 0 0 0 1 0 0 0 0 -0 0 -0 -0 -0 -0 -0 -0 -0 -0 -0 0 0 0
-0 -0 -0 -0 -0 -0 -0 -0 -0 -0 -0 0 0 0 0 0 0 0 0 0 0 0 0 0 0 -0 -0 -0 -0 -0 -0 -0 -0 -0 -0 -0 -0 0
-0 0 -0 0 -0 -0 -0 -0 0 0 0 0 0 -0 0 0 0 0 0 0 0 0 0 0 0 0 0 -0 -0 -0 -0 -0 -0 -0 -0 0 0 0
0 -0 0 0 -0 0 0 0 0 0 0 0 0 0 0 0 0 0 0 0 0 0 0 0 0 0 0 0 0 -0 -0 -0 0 0 0 0 0 0
-0 -0 -0 -0 0 0 1 1 0 0 0 -0 0 0 0 0 0 1 1 1 0 0 1 1 0 0 0 0 0 0 0 0 0 0 0 0 0 0
-0 -0 -0 -0 -0 0 1 1 1 1 1 1 0 0 0 0 0 1 1 1 1 1 1 1 0 0 0 0 1 0 0 0 0 0 0 0 0 0
-0 -0 1 0 0 0 1 -0 1 2 2 2 2 1 1 1 1 1 1 1 1 1 0 0 0 1 1 0 1 1 1 0 0 0 0 0 0 0
0 0 1 0 0 0 0 1 1 2 2 2 2 2 1 1 2 1 1 1 1 0 0 0 0 0 0 1 0 1 1 1 1 0 0 0 0 0
0 1 0 0 0 0 0 0 0 2 3 2 2 2 3 4 3 2 1 1 1 0 0 0 0 0 0 0 0 0 0 0 0 0 0 0 0 0
0 0 0 0 0 0 0 0 0 2 3 2 2 2 4 3 2 1 0 0 0 0 0 0 0 1 0 0 0 0 0 0 0 0 0 0 0 0
2 1 0 0 0 1 1 2 2 2 2 3 3 4 3 2 2 1 1 0 0 0 0 0 0 0 0 0 0 0 0 0 0 0 0 0 0 0
2 2 1 1 1 1 1 1 1 1 2 2 3 2 2 2 2 1 1 0 0 0 0 0 0 0 0 0 0 0 0 0 0 0 0 0 0 0
1 1 1 1 1 1 1 1 1 1 1 2 1 1 1 1 0 0 0 0 0 0 0 0 0 0 0 0 0 0 0 0 0 0 0 0 0 0
1 1 1 1 1 1 1 1 1 1 1 1 1 1 1 0 0 0 0 0 0 0 0 0 0 0 0 0 0 0 0 0 0 0 0 0 0 0
0 0 1 1 1 1 1 1 1 1 2 1 1 1 1 0 0 0 0 0 0 0 0 0 0 0 0 0 0 0 0 0 0 0 0 0 0 0
0 1 1 1 1 1 1 2 1 1 1 1 1 1 0 0 0 0 0 0 0 0 0 0 0 0 0 0 0 0 0 0 0 0 0 0 0 0
0 1 2 2 2 1 2 1 2 1 1 1 0 0 0 0 0 0 0 0 0 0 0 0 0 0 0 0 0 0 0 0 0 0 0 0 0 0
Wind_Speed_500mb
38 38 38 29 29 28 25 28 26 18 17 15 11 11 15 18 20 26 34 42 41 45 62 70 70 67 61 57 56 56 53 53 53 51 49 48 47 46
37 35 36 31 30 27 24 24 24 23 19 18 10 11 15 15 10 16 21 36 41 41 47 53 65 71 72 66 65 61 58 56 58 58 58 57 56 54
40 39 39 34 34 27 29 19 23 31 27 18 20 19 22 11 1 5 3 17 18 32 40 42 54 58 64 68 70 70 69 69 67 65 64 64 63 61
47 44 44 36 37 32 29 27 35 31 25 23 21 23 24 18 11 10 6 6 14 17 11 31 37 49 50 57 65 70 71 72 74 72 68 68 70 70
49 48 43 40 39 39 40 35 38 36 32 26 21 21 23 20 15 12 12 13 15 10 15 17 25 30 35 37 48 61 67 66 67 70 68 69 72 73
52 53 51 50 49 46 44 40 36 35 27 27 25 25 25 24 23 21 19 20 17 13 16 16 15 18 23 30 44 52 59 63 66 69 71 71 70 69
53 53 53 51 51 45 42 41 37 33 31 27 29 29 26 24 34 27 20 20 21 22 16 15 16 17 16 21 29 37 42 42 48 53 55 56 57 58
51 50 48 49 48 44 45 47 38 36 32 31 28 31 27 32 34 34 35 32 36 31 29 29 23 18 7 10 12 15 16 17 20 28 37 43 47 51
41 48 46 44 37 39 37 39 46 52 44 35 39 35 32 35 36 38 37 33 31 29 26 29 24 31 23 27 31 29 24 20 22 28 32 34 36 39
50 50 52 49 47 37 42 42 37 42 50 49 46 41 38 37 31 39 46 48 45 38 32 39 28 37 26 30 33 33 26 28 26 25 29 34 35 37
52 53 55 53 50 44 47 43 38 35 33 26 30 30 33 42 40 39 39 41 46 41 31 42 44 36 33 34 37 33 30 31 31 31 32 33 32 32
48 55 47 52 57 55 50 49 46 42 33 33 33 43 41 37 40 46 47 37 37 37 39 46 39 39 38 29 24 23 32 36 34 32 33 28 35 40
45 44 40 44 49 46 54 56 52 39 40 37 35 31 40 42 45 46 52 55 57 51 43 33 34 32 37 24 20 19 23 27 30 29 31 36 34 31
44 44 49 59 64 48 44 49 50 46 38 44 42 40 44 51 50 49 48 48 49 48 45 45 40 38 40 39 37 30 30 35 32 30 27 28 29 31
40 50 57 54 56 60 55 55 50 51 50 54 52 43 44 49 52 49 51 51 51 43 38 33 37 37 37 39 41 42 28 31 28 31 26 27 18 15
34 43 49 53 50 54 52 56 57 58 56 57 53 45 52 54 53 47 40 36 32 22 27 25 32 33 34 31 34 28 22 17 13 15 15 7 9 16
41 49 46 51 53 42 43 45 49 48 54 55 47 51 54 41 35 31 30 33 28 23 21 25 27 24 20 14 13 7 10 6 7 9 13 15 22 26
48 52 55 48 46 42 39 36 39 40 45 48 49 51 43 37 33 31 29 30 26 23 20 22 19 10 14 12 10 7 3 2 0 1 1 2 8 10
64 59 60 56 47 40 37 33 33 34 33 38 39 39 39 37 33 37 27 18 20 20 22 17 12 9 16 16 14 20 24 17 17 15 19 20 28 19
76 71 65 65 62 50 50 48 51 49 46 45 45 46 40 33 27 21 20 20 23 20 16 12 19 28 25 14 12 11 18 21 18 19 26 30 36 42
88 80 71 69 71 56 58 65 67 64 58 55 51 40 32 30 24 25 32 31 24 18 14 26 25 22 21 23 25 9 8 10 15 20 28 32 30 27
86 67 73 66 56 53 48 51 47 49 59 47 37 38 35 32 26 28 26 27 30 20 23 14 14 19 16 11 9 13 15 18 24 23 18 21 26 29
89 82 66 61 56 49 53 47 53 60 43 41 44 40 39 31 32 37 28 31 33 29 25 23 17 7 7 7 11 11 6 15 18 25 30 21 27 30
Wind_Direction_500mb
264 266 275 278 276 280 282 274 268 271 288 283 248 265 279 291 271 243 246 227 232 232 228 232 238 240 241 240 239 239 240 244 246 247 248 249 251 255
262 267 272 283 279 281 282 279 255 258 270 276 270 256 284 298 287 260 239 230 234 226 231 233 236 238 238 243 241 238 238 243 246 248 251 252 254 256
267 264 263 272 277 277 274 259 254 260 261 264 241 239 250 266 282 97 118 231 235 220 229 237 237 233 236 239 238 240 243 245 247 246 248 252 253 256
269 269 272 272 271 269 260 256 252 272 261 258 244 243 234 246 254 254 200 191 181 195 207 228 235 233 238 242 240 242 244 248 248 247 248 252 254 260
270 272 271 270 267 265 274 268 252 259 265 259 240 252 225 230 248 228 210 190 209 190 159 156 218 226 234 244 244 242 244 247 247 247 252 255 258 262
268 268 268 267 267 267 269 269 263 258 257 253 250 248 231 234 249 235 231 239 217 243 250 231 251 248 235 244 252 250 246 247 249 252 255 258 260 262
269 268 269 267 266 266 265 265 264 254 250 254 252 250 255 229 243 239 240 261 263 251 250 252 254 263 276 276 270 264 258 253 251 254 258 261 262 265
271 272 272 273 264 259 259 268 259 255 249 238 255 247 249 255 243 247 248 248 253 252 252 257 265 253 238 245 292 288 281 279 274 266 263 261 262 263
264 271 273 267 273 273 271 266 255 245 249 251 245 239 245 250 245 241 242 245 252 263 235 253 256 265 276 279 270 264 288 295 291 273 269 267 266 267
268 265 264 264 257 264 254 253 265 252 249 252 252 254 258 254 257 244 249 246 250 245 248 255 256 258 256 259 269 263 246 272 285 286 282 275 275 273
273 268 265 261 261 250 247 246 256 257 256 269 262 262 266 248 251 258 262 255 257 258 255 259 260 251 246 254 256 262 261 269 274 285 291 277 272 270
280 270 269 265 261 254 247 244 247 249 252 249 254 256 262 260 254 249 252 249 249 258 254 251 252 253 260 255 256 256 255 257 268 274 280 270 276 275
259 268 277 281 275 267 268 257 250 249 249 250 252 266 264 268 265 261 254 255 255 254 257 264 248 243 244 229 235 241 242 250 261 261 269 270 267 271
281 277 256 255 263 261 253 250 253 253 251 246 247 250 253 263 265 262 264 264 259 255 250 255 268 261 264 263 262 259 266 268 267 261 258 261 260 270
305 293 282 276 275 275 266 260 251 248 243 244 252 250 255 260 267 269 265 257 260 256 262 264 265 265 264 270 271 270 268 265 261 256 260 267 271 265
291 306 303 293 281 277 272 261 254 243 240 243 252 254 259 265 267 271 270 251 250 260 244 263 267 263 274 268 266 277 267 250 248 252 237 259 297 301
272 287 296 298 287 278 274 259 262 253 235 235 234 244 257 258 258 246 243 243 237 247 252 249 267 266 248 245 245 266 251 251 289 292 276 275 277 284
269 272 278 284 277 269 265 257 259 242 229 230 235 241 241 235 231 233 243 229 256 238 242 234 217 228 264 240 211 219 244 69 295 310 92 184 274 276
268 269 272 271 273 251 246 225 231 231 234 237 237 234 229 231 231 245 236 212 229 226 206 204 218 200 223 261 210 209 205 209 220 223 241 245 234 260
262 265 267 272 269 259 245 231 226 231 230 229 225 221 232 231 210 185 197 198 208 202 210 222 215 219 213 217 194 244 277 281 275 248 253 265 275 278
259 259 263 265 266 261 243 242 248 226 236 227 225 228 211 188 185 206 200 195 199 189 199 201 204 222 239 256 279 299 287 296 284 283 293 300 310 299
252 247 260 264 267 252 242 234 226 217 214 216 215 193 187 190 192 195 194 203 179 178 203 208 244 264 269 255 205 253 272 285 299 316 293 307 304 294
253 252 241 254 260 244 230 225 214 211 212 201 184 185 186 182 191 192 185 168 177 191 208 230 247 259 293 268 273 301 312 300 276 283 290 296 306 300
Wind_Speed_850mb
38 38 38 29 29 28 25 28 26 18 17 15 11 11 15 18 20 26 34 42 41 45 62 70 70 67 61 57 56 56 53 53 53 51 49 48 47 46
37 35 36 31 30 27 24 24 24 23 19 18 10 11 15 15 10 16 21 36 41 41 47 53 65 71 72 66 65 61 58 56 58 58 58 57 56 54
40 39 39 34 34 27 29 19 23 31 27 18 20 19 22 11 1 5 3 17 18 32 40 42 54 58 64 68 70 70 69 69 67 65 64 64 63 61
47 44 44 36 37 32 29 27 35 31 25 23 21 23 24 18 11 10 6 6 14 17 11 31 37 49 50 57 65 70 71 72 74 72 68 68 70 70
49 48 43 40 39 39 40 35 38 36 32 26 21 21 23 20 15 12 12 13 15 10 15 17 25 30 35 37 48 61 67 66 67 70 68 69 72 73
52 53 51 50 49 46 44 40 36 35 27 27 25 25 25 24 23 21 19 20 17 13 16 16 15 18 23 30 44 52 59 63 66 69 71 71 70 69
53 53 53 51 51 45 42 41 37 33 31 27 29 29 26 24 34 27 20 20 21 22 16 15 16 17 16 21 29 37 42 42 48 53 55 56 57 58
51 50 48 49 48 44 45 47 38 36 32 31 28 31 27 32 34 34 35 32 36 31 29 29 23 18 7 10 12 15 16 17 20 28 37 43 47 51
41 48 46 44 37 39 37 39 46 52 44 35 39 35 32 35 36 38 37 33 31 29 26 29 24 31 23 27 31 29 24 20 22 28 32 34 36 39
50 50 52 49 47 37 42 42 37 42 50 49 46 41 38 37 31 39 46 48 45 38 32 39 28 37 26 30 33 33 26 28 26 25 29 34 35 37
52 53 55 53 50 44 47 43 38 35 33 26 30 30 33 42 40 39 39 41 46 41 31 42 44 36 33 34 37 33 30 31 31 31 32 33 32 32
48 55 47 52 57 55 50 49 46 42 33 33 33 43 41 37 40 46 47 37 37 37 39 46 39 39 38 29 24 23 32 36 34 32 33 28 35 40
45 44 40 44 49 46 54 56 52 39 40 37 35 31 40 42 45 46 52 55 57 51 43 33 34 32 37 24 20 19 23 27 30 29 31 36 34 31
44 44 49 59 64 48 44 49 50 46 38 44 42 40 44 51 50 49 48 48 49 48 45 45 40 38 40 39 37 30 30 35 32 30 27 28 29 31
40 50 57 54 56 60 55 55 50 51 50 54 52 43 44 49 52 49 51 51 51 43 38 33 37 37 37 39 41 42 28 31 28 31 26 27 18 15
34 43 49 53 50 54 52 56 57 58 56 57 53 45 52 54 53 47 40 36 32 22 27 25 32 33 34 31 34 28 22 17 13 15 15 7 9 16
41 49 46 51 53 42 43 45 49 48 54 55 47 51 54 41 35 31 30 33 28 23 21 25 27 24 20 14 13 7 10 6 7 9 13 15 22 26
48 52 55 48 46 42 39 36 39 40 45 48 49 51 43 37 33 31 29 30 26 23 20 22 19 10 14 12 10 7 3 2 0 1 1 2 8 10
64 59 60 56 47 40 37 33 33 34 33 38 39 39 39 37 33 37 27 18 20 20 22 17 12 9 16 16 14 20 24 17 17 15 19 20 28 19
76 71 65 65 62 50 50 48 51 49 46 45 45 46 40 33 27 21 20 20 23 20 16 12 19 28 25 14 12 11 18 21 18 19 26 30 36 42
88 80 71 69 71 56 58 65 67 64 58 55 51 40 32 30 24 25 32 31 24 18 14 26 25 22 21 23 25 9 8 10 15 20 28 32 30 27
86 67 73 66 56 53 48 51 47 49 59 47 37 38 35 32 26 28 26 27 30 20 23 14 14 19 16 11 9 13 15 18 24 23 18 21 26 29
89 82 66 61 56 49 53 47 53 60 43 41 44 40 39 31 32 37 28 31 33 29 25 23 17 7 7 7 11 11 6 15 18 25 30 21 27 30
Wind_Direction_850mb
264 266 275 278 276 280 282 274 268 271 288 283 248 265 279 291 271 243 246 227 232 232 228 232 238 240 241 240 239 239 240 244 246 247 248 249 251 255
262 267 272 283 279 281 282 279 255 258 270 276 270 256 284 298 287 260 239 230 234 226 231 233 236 238 238 243 241 238 238 243 246 248 251 252 254 256
267 264 263 272 277 277 274 259 254 260 261 264 241 239 250 266 282 97 118 231 235 220 229 237 237 233 236 239 238 240 243 245 247 246 248 252 253 256
269 269 272 272 271 269 260 256 252 272 261 258 244 243 234 246 254 254 200 191 181 195 207 228 235 233 238 242 240 242 244 248 248 247 248 252 254 260
270 272 271 270 267 265 274 268 252 259 265 259 240 252 225 230 248 228 210 190 209 190 159 156 218 226 234 244 244 242 244 247 247 247 252 255 258 262
268 268 268 267 267 267 269 269 263 258 257 253 250 248 231 234 249 235 231 239 217 243 250 231 251 248 235 244 252 250 246 247 249 252 255 258 260 262
269 268 269 267 266 266 265 265 264 254 250 254 252 250 255 229 243 239 240 261 263 251 250 252 254 263 276 276 270 264 258 253 251 254 258 261 262 265
271 272 272 273 264 259 259 268 259 255 249 238 255 247 249 255 243 247 248 248 253 252 252 257 265 253 238 245 292 288 281 279 274 266 263 261 262 263
264 271 273 267 273 273 271 266 255 245 249 251 245 239 245 250 245 241 242 245 252 263 235 253 256 265 276 279 270 264 288 295 291 273 269 267 266 267
268 265 264 264 257 264 254 253 265 252 249 252 252 254 258 254 257 244 249 246 250 245 248 255 256 258 256 259 269 263 246 272 285 286 282 275 275 273
273 268 265 261 261 250 247 246 256 257 256 269 262 262 266 248 251 258 262 255 257 258 255 259 260 251 246 254 256 262 261 269 274 285 291 277 272 270
280 270 269 265 261 254 247 244 247 249 252 249 254 256 262 260 254 249 252 249 249 258 254 251 252 253 260 255 256 256 255 257 268 274 280 270 276 275
259 268 277 281 275 267 268 257 250 249 249 250 252 266 264 268 265 261 254 255 255 254 257 264 248 243 244 229 235 241 242 250 261 261 269 270 267 271
281 277 256 255 263 261 253 250 253 253 251 246 247 250 253 263 265 262 264 264 259 255 250 255 268 261 264 263 262 259 266 268 267 261 258 261 260 270
305 293 282 276 275 275 266 260 251 248 243 244 252 250 255 260 267 269 265 257 260 256 262 264 265 265 264 270 271 270 268 265 261 256 260 267 271 265
291 306 303 293 281 277 272 261 254 243 240 243 252 254 259 265 267 271 270 251 250 260 244 263 267 263 274 268 266 277 267 250 248 252 237 259 297 301
272 287 296 298 287 278 274 259 262 253 235 235 234 244 257 258 258 246 243 243 237 247 252 249 267 266 248 245 245 266 251 251 289 292 276 275 277 284
269 272 278 284 277 269 265 257 259 242 229 230 235 241 241 235 231 233 243 229 256 238 242 234 217 228 264 240 211 219 244 69 295 310 92 184 274 276
268 269 272 271 273 251 246 225 231 231 234 237 237 234 229 231 231 245 236 212 229 226 206 204 218 200 223 261 210 209 205 209 220 223 241 245 234 260
262 265 267 272 269 259 245 231 226 231 230 229 225 221 232 231 210 185 197 198 208 202 210 222 215 219 213 217 194 244 277 281 275 248 253 265 275 278
259 259 263 265 266 261 243 242 248 226 236 227 225 228 211 188 185 206 200 195 199 189 199 201 204 222 239 256 279 299 287 296 284 283 293 300 310 299
252 247 260 264 267 252 242 234 226 217 214 216 215 193 187 190 192 195 194 203 179 178 203 208 244 264 269 255 205 253 272 285 299 316 293 307 304 294
253 252 241 254 260 244 230 225 214 211 212 201 184 185 186 182 191 192 185 168 177 191 208 230 247 259 293 268 273 301 312 300 276 283 290 296 306 300